Time,TemperatureF,DewpointF,PressureIn,WindDirection,WindDirectionDegrees,WindSpeedMPH,WindSpeedGustMPH,Humidity,HourlyPrecipIn,Conditions,Clouds,dailyrainin,SoftwareType,DateUTC
2015-09-01 00:01:00,76.7,66.2,29.82,NNW,338,0.0,0.0,70,0.00,,---,0.00,VWS V15.00,2015-09-01 04:01:00,
2015-09-01 00:06:00,76.8,66.3,29.82,NNW,338,0.0,0.0,70,0.00,,---,0.00,VWS V15.00,2015-09-01 04:06:00,
2015-09-01 00:11:00,76.7,66.2,29.82,NNW,338,0.0,0.0,70,0.00,,---,0.00,VWS V15.00,2015-09-01 04:11:00,
2015-09-01 00:16:00,76.6,66.1,29.82,NNW,338,0.0,0.0,70,0.00,,---,0.00,VWS V15.00,2015-09-01 04:16:00,
2015-09-01 00:21:00,76.6,66.1,29.82,NNW,338,0.0,0.0,70,0.00,,---,0.00,VWS V15.00,2015-09-01 04:21:00,
2015-09-01 00:26:00,76.6,66.1,29.82,NNW,338,0.0,0.0,70,0.00,,---,0.00,VWS V15.00,2015-09-01 04:26:00,
2015-09-01 00:31:00,76.6,65.7,29.82,NNW,338,0.0,0.0,69,0.00,,---,0.00,VWS V15.00,2015-09-01 04:31:00,
2015-09-01 00:36:00,76.5,66.0,29.82,NNW,338,0.0,0.0,70,0.00,,---,0.00,VWS V15.00,2015-09-01 04:36:00,
2015-09-01 00:41:00,76.5,65.6,29.82,NNW,338,0.0,0.0,69,0.00,,---,0.00,VWS V15.00,2015-09-01 04:41:00,
2015-09-01 00:46:00,76.4,65.9,29.82,NNW,338,0.0,0.0,70,0.00,,---,0.00,VWS V15.00,2015-09-01 04:46:00,
2015-09-01 00:51:00,76.4,65.9,29.82,NNW,338,0.0,0.0,70,0.00,,---,0.00,VWS V15.00,2015-09-01 04:51:00,
2015-09-01 00:56:00,76.4,65.9,29.82,NNW,338,0.0,0.0,70,0.00,,---,0.00,VWS V15.00,2015-09-01 04:56:00,
2015-09-01 01:01:00,76.3,65.8,29.82,NNW,338,0.0,0.0,70,0.00,,---,0.00,VWS V15.00,2015-09-01 05:01:00,
2015-09-01 01:06:00,76.3,65.8,29.82,NNW,338,0.0,0.0,70,0.00,,---,0.00,VWS V15.00,2015-09-01 05:06:00,
2015-09-01 01:11:00,76.3,65.8,29.82,NNW,338,0.0,0.0,70,0.00,,---,0.00,VWS V15.00,2015-09-01 05:11:00,
2015-09-01 01:16:00,76.2,65.7,29.82,NNW,338,0.0,0.0,70,0.00,,---,0.00,VWS V15.00,2015-09-01 05:16:00,
2015-09-01 01:21:00,76.1,65.6,29.82,NNW,338,0.0,0.0,70,0.00,,---,0.00,VWS V15.00,2015-09-01 05:21:00,
2015-09-01 01:26:00,76.1,65.6,29.82,NNW,338,0.0,0.0,70,0.00,,---,0.00,VWS V15.00,2015-09-01 05:26:00,
2015-09-01 01:31:00,76.1,65.6,29.82,NNW,338,0.0,0.0,70,0.00,,---,0.00,VWS V15.00,2015-09-01 05:31:00,
2015-09-01 01:36:00,76.0,65.5,29.82,NNW,338,0.0,0.0,70,0.00,,---,0.00,VWS V15.00,2015-09-01 05:36:00,
2015-09-01 01:41:00,76.0,65.1,29.82,NNW,338,0.0,0.0,69,0.00,,---,0.00,VWS V15.00,2015-09-01 05:41:00,
2015-09-01 01:46:00,75.9,65.0,29.82,NNW,338,0.0,0.0,69,0.00,,---,0.00,VWS V15.00,2015-09-01 05:46:00,
2015-09-01 01:51:00,75.9,65.0,29.82,NNW,338,0.0,0.0,69,0.00,,---,0.00,VWS V15.00,2015-09-01 05:51:00,
2015-09-01 01:56:00,76.0,65.1,29.82,NNW,338,0.0,0.0,69,0.00,,---,0.00,VWS V15.00,2015-09-01 05:56:00,
2015-09-01 02:01:00,75.9,65.0,29.82,NNW,338,0.0,0.0,69,0.00,,---,0.00,VWS V15.00,2015-09-01 06:01:00,
2015-09-01 02:06:00,75.8,64.9,29.82,NNW,338,0.0,0.0,69,0.00,,---,0.00,VWS V15.00,2015-09-01 06:06:00,
2015-09-01 02:11:00,75.8,64.9,29.82,NNW,338,0.0,0.0,69,0.00,,---,0.00,VWS V15.00,2015-09-01 06:11:00,
2015-09-01 02:16:00,75.9,65.0,29.82,NNW,338,0.0,0.0,69,0.00,,---,0.00,VWS V15.00,2015-09-01 06:16:00,
2015-09-01 02:21:00,75.9,65.0,29.82,NNW,338,0.0,0.0,69,0.00,,---,0.00,VWS V15.00,2015-09-01 06:21:00,
2015-09-01 02:26:00,76.0,65.1,29.82,NNW,338,0.0,0.0,69,0.00,,---,0.00,VWS V15.00,2015-09-01 06:26:00,
2015-09-01 02:31:00,75.8,64.9,29.82,NNW,338,0.0,0.0,69,0.00,,---,0.00,VWS V15.00,2015-09-01 06:31:00,
2015-09-01 02:36:00,75.8,64.9,29.82,NNW,338,0.0,0.0,69,0.00,,---,0.00,VWS V15.00,2015-09-01 06:36:00,
2015-09-01 02:41:00,75.8,64.9,29.82,NNW,338,0.0,0.0,69,0.00,,---,0.00,VWS V15.00,2015-09-01 06:41:00,
2015-09-01 02:46:00,75.7,64.8,29.82,NNW,338,0.0,0.0,69,0.00,,---,0.00,VWS V15.00,2015-09-01 06:46:00,
2015-09-01 02:51:00,75.7,64.8,29.82,NNW,338,0.0,0.0,69,0.00,,---,0.00,VWS V15.00,2015-09-01 06:51:00,
2015-09-01 02:56:00,75.7,64.8,29.82,NNW,338,0.0,0.0,69,0.00,,---,0.00,VWS V15.00,2015-09-01 06:56:00,
2015-09-01 03:01:00,75.7,64.8,29.82,NNW,338,0.0,0.0,69,0.00,,---,0.00,VWS V15.00,2015-09-01 07:01:00,
2015-09-01 03:06:00,75.6,64.7,29.82,NNW,338,0.0,0.0,69,0.00,,---,0.00,VWS V15.00,2015-09-01 07:06:00,
2015-09-01 03:11:00,75.6,64.7,29.82,NNW,338,0.0,0.0,69,0.00,,---,0.00,VWS V15.00,2015-09-01 07:11:00,
2015-09-01 03:16:00,75.6,64.7,29.82,NNW,338,0.0,0.0,69,0.00,,---,0.00,VWS V15.00,2015-09-01 07:16:00,
2015-09-01 03:21:00,75.6,64.7,29.82,NNW,338,0.0,0.0,69,0.00,,---,0.00,VWS V15.00,2015-09-01 07:21:00,
2015-09-01 03:26:00,75.6,64.7,29.82,NNW,338,0.0,0.0,69,0.00,,---,0.00,VWS V15.00,2015-09-01 07:26:00,
2015-09-01 03:31:00,75.7,64.8,29.82,NNW,338,0.0,0.0,69,0.00,,---,0.00,VWS V15.00,2015-09-01 07:31:00,
2015-09-01 03:36:00,75.7,64.8,29.82,NNW,338,0.0,0.0,69,0.00,,---,0.00,VWS V15.00,2015-09-01 07:36:00,
2015-09-01 03:41:00,75.6,64.7,29.82,NNW,338,0.0,0.0,69,0.00,,---,0.00,VWS V15.00,2015-09-01 07:41:00,
2015-09-01 03:46:00,75.6,64.7,29.82,NNW,338,0.0,0.0,69,0.00,,---,0.00,VWS V15.00,2015-09-01 07:46:00,
2015-09-01 03:51:00,75.8,64.9,29.82,NNW,338,0.0,0.0,69,0.00,,---,0.00,VWS V15.00,2015-09-01 07:51:00,
2015-09-01 03:56:00,75.7,64.8,29.82,NNW,338,0.0,0.0,69,0.00,,---,0.00,VWS V15.00,2015-09-01 07:56:00,
2015-09-01 04:01:00,75.6,64.7,29.82,NNW,338,0.0,0.0,69,0.00,,---,0.00,VWS V15.00,2015-09-01 08:01:00,
2015-09-01 04:06:00,75.6,64.7,29.82,NNW,338,0.0,0.0,69,0.00,,---,0.00,VWS V15.00,2015-09-01 08:06:00,
2015-09-01 04:11:00,75.5,64.6,29.82,NNW,338,0.0,0.0,69,0.00,,---,0.00,VWS V15.00,2015-09-01 08:11:00,
2015-09-01 04:16:00,75.5,64.6,29.82,NNW,338,0.0,0.0,69,0.00,,---,0.00,VWS V15.00,2015-09-01 08:16:00,
2015-09-01 04:21:00,75.5,64.6,29.82,NNW,338,0.0,0.0,69,0.00,,---,0.00,VWS V15.00,2015-09-01 08:21:00,
2015-09-01 04:26:00,75.6,64.7,29.82,NNW,338,0.0,0.0,69,0.00,,---,0.00,VWS V15.00,2015-09-01 08:26:00,
2015-09-01 04:31:00,75.5,64.6,29.82,NNW,338,0.0,0.0,69,0.00,,---,0.00,VWS V15.00,2015-09-01 08:31:00,
2015-09-01 04:36:00,75.5,64.6,29.82,NNW,338,0.0,0.0,69,0.00,,---,0.00,VWS V15.00,2015-09-01 08:36:00,
2015-09-01 04:41:00,75.5,64.6,29.82,NNW,338,0.0,0.0,69,0.00,,---,0.00,VWS V15.00,2015-09-01 08:41:00,
2015-09-01 04:46:00,75.5,64.6,29.82,NNW,338,0.0,0.0,69,0.00,,---,0.00,VWS V15.00,2015-09-01 08:46:00,
2015-09-01 04:51:00,75.5,64.6,29.82,NNW,338,0.0,0.0,69,0.00,,---,0.00,VWS V15.00,2015-09-01 08:51:00,
2015-09-01 04:56:00,75.5,64.6,29.82,NNW,338,0.0,0.0,69,0.00,,---,0.00,VWS V15.00,2015-09-01 08:56:00,
2015-09-01 05:01:00,75.5,64.6,29.82,NNW,338,0.0,0.0,69,0.00,,---,0.00,VWS V15.00,2015-09-01 09:01:00,
2015-09-01 05:06:00,75.4,64.5,29.82,NNW,338,0.0,0.0,69,0.00,,---,0.00,VWS V15.00,2015-09-01 09:06:00,
2015-09-01 05:11:00,75.3,64.4,29.82,NNW,338,0.0,0.0,69,0.00,,---,0.00,VWS V15.00,2015-09-01 09:11:00,
2015-09-01 05:16:00,75.3,64.4,29.82,NNW,338,0.0,0.0,69,0.00,,---,0.00,VWS V15.00,2015-09-01 09:16:00,
2015-09-01 05:21:00,75.3,64.8,29.82,NNW,338,0.0,0.0,70,0.00,,---,0.00,VWS V15.00,2015-09-01 09:21:00,
2015-09-01 05:26:00,75.2,64.3,29.82,NNW,338,0.0,0.0,69,0.00,,---,0.00,VWS V15.00,2015-09-01 09:26:00,
2015-09-01 05:31:00,75.3,64.4,29.82,NNW,338,0.0,0.0,69,0.00,,---,0.00,VWS V15.00,2015-09-01 09:31:00,
2015-09-01 05:36:00,75.2,64.8,29.82,NNW,338,0.0,0.0,70,0.00,,---,0.00,VWS V15.00,2015-09-01 09:36:00,
2015-09-01 05:41:00,75.1,64.7,29.82,NNW,338,0.0,0.0,70,0.00,,---,0.00,VWS V15.00,2015-09-01 09:41:00,
2015-09-01 05:46:00,75.1,64.7,29.82,NNW,338,0.0,0.0,70,0.00,,---,0.00,VWS V15.00,2015-09-01 09:46:00,
2015-09-01 05:51:00,75.1,64.7,29.82,NNW,338,0.0,0.0,70,0.00,,---,0.00,VWS V15.00,2015-09-01 09:51:00,
2015-09-01 05:56:00,75.1,64.7,29.82,NNW,338,0.0,0.0,70,0.00,,---,0.00,VWS V15.00,2015-09-01 09:56:00,
2015-09-01 06:01:00,75.1,64.7,29.82,NNW,338,0.0,0.0,70,0.00,,---,0.00,VWS V15.00,2015-09-01 10:01:00,
2015-09-01 06:06:00,75.1,64.7,29.82,NNW,338,0.0,0.0,70,0.00,,---,0.00,VWS V15.00,2015-09-01 10:06:00,
2015-09-01 06:11:00,75.0,64.6,29.82,NNW,338,0.0,0.0,70,0.00,,---,0.00,VWS V15.00,2015-09-01 10:11:00,
2015-09-01 06:16:00,75.2,64.8,29.82,NNW,338,0.0,0.0,70,0.00,,---,0.00,VWS V15.00,2015-09-01 10:16:00,
2015-09-01 06:21:00,75.2,64.8,29.82,NNW,338,0.0,0.0,70,0.00,,---,0.00,VWS V15.00,2015-09-01 10:21:00,
2015-09-01 06:26:00,75.3,64.8,29.82,NNW,338,0.0,0.0,70,0.00,,---,0.00,VWS V15.00,2015-09-01 10:26:00,
2015-09-01 06:31:00,75.3,64.8,29.82,NNW,338,0.0,0.0,70,0.00,,---,0.00,VWS V15.00,2015-09-01 10:31:00,
2015-09-01 06:36:00,75.3,64.8,29.82,NNW,338,0.0,0.0,70,0.00,,---,0.00,VWS V15.00,2015-09-01 10:36:00,
2015-09-01 06:41:00,75.4,64.9,29.82,NNW,338,0.0,0.0,70,0.00,,---,0.00,VWS V15.00,2015-09-01 10:41:00,
2015-09-01 06:46:00,75.5,65.0,29.82,NNW,338,0.0,0.0,70,0.00,,---,0.00,VWS V15.00,2015-09-01 10:46:00,
2015-09-01 06:51:00,75.5,65.0,29.82,NNW,338,0.0,0.0,70,0.00,,---,0.00,VWS V15.00,2015-09-01 10:51:00,
2015-09-01 06:56:00,75.5,65.0,29.82,NNW,338,0.0,0.0,70,0.00,,---,0.00,VWS V15.00,2015-09-01 10:56:00,
2015-09-01 07:01:00,75.5,65.0,29.82,NNW,338,0.0,0.0,70,0.00,,---,0.00,VWS V15.00,2015-09-01 11:01:00,
2015-09-01 07:06:00,75.5,64.6,29.82,NNW,338,0.0,0.0,69,0.00,,---,0.00,VWS V15.00,2015-09-01 11:06:00,
2015-09-01 07:11:00,75.5,64.6,29.82,NNW,338,0.0,0.0,69,0.00,,---,0.00,VWS V15.00,2015-09-01 11:11:00,
2015-09-01 07:16:00,75.5,64.6,29.82,NNW,338,0.0,0.0,69,0.00,,---,0.00,VWS V15.00,2015-09-01 11:16:00,
2015-09-01 07:21:00,75.5,64.6,29.82,NNW,338,0.0,0.0,69,0.00,,---,0.00,VWS V15.00,2015-09-01 11:21:00,
2015-09-01 07:26:00,75.6,64.7,29.82,NNW,338,0.0,0.0,69,0.00,,---,0.00,VWS V15.00,2015-09-01 11:26:00,
2015-09-01 07:31:00,75.6,64.7,29.82,NNW,338,0.0,0.0,69,0.00,,---,0.00,VWS V15.00,2015-09-01 11:31:00,
2015-09-01 07:36:00,75.6,64.7,29.82,NNW,338,0.0,0.0,69,0.00,,---,0.00,VWS V15.00,2015-09-01 11:36:00,
2015-09-01 07:41:00,75.8,64.9,29.82,NNW,338,0.0,0.0,69,0.00,,---,0.00,VWS V15.00,2015-09-01 11:41:00,
2015-09-01 07:46:00,75.9,65.0,29.82,NNW,338,0.0,0.0,69,0.00,,---,0.00,VWS V15.00,2015-09-01 11:46:00,
2015-09-01 07:51:00,76.0,65.5,29.82,NNW,338,0.0,0.0,70,0.00,,---,0.00,VWS V15.00,2015-09-01 11:51:00,
2015-09-01 07:56:00,76.2,65.7,29.82,NNW,338,0.0,0.0,70,0.00,,---,0.00,VWS V15.00,2015-09-01 11:56:00,
2015-09-01 08:01:00,76.4,65.9,29.82,NNW,338,0.0,0.0,70,0.00,,---,0.00,VWS V15.00,2015-09-01 12:01:00,
2015-09-01 08:06:00,76.7,65.8,29.82,NNW,338,0.0,0.0,69,0.00,,---,0.00,VWS V15.00,2015-09-01 12:06:00,
2015-09-01 08:11:00,77.2,66.2,29.82,NNW,338,0.0,0.0,69,0.00,,---,0.00,VWS V15.00,2015-09-01 12:11:00,
2015-09-01 08:16:00,77.5,66.5,29.82,NNW,338,0.0,0.0,69,0.00,,---,0.00,VWS V15.00,2015-09-01 12:16:00,
2015-09-01 08:21:00,77.8,66.8,29.82,NNW,338,0.0,0.0,69,0.00,,---,0.00,VWS V15.00,2015-09-01 12:21:00,
2015-09-01 08:26:00,78.1,67.1,29.82,NNW,338,0.0,0.0,69,0.00,,---,0.00,VWS V15.00,2015-09-01 12:26:00,
2015-09-01 08:31:00,78.3,67.3,29.82,NNW,338,0.0,1.0,69,0.00,,---,0.00,VWS V15.00,2015-09-01 12:31:00,
2015-09-01 08:36:00,78.4,67.4,29.82,NNW,338,0.0,1.0,69,0.00,,---,0.00,VWS V15.00,2015-09-01 12:36:00,
2015-09-01 08:41:00,78.4,67.4,29.82,NNW,338,0.0,1.0,69,0.00,,---,0.00,VWS V15.00,2015-09-01 12:41:00,
2015-09-01 08:46:00,78.7,67.7,29.82,NNW,338,0.0,1.0,69,0.00,,---,0.00,VWS V15.00,2015-09-01 12:46:00,
2015-09-01 08:51:00,79.1,67.6,29.82,NNW,338,0.0,1.0,68,0.00,,---,0.00,VWS V15.00,2015-09-01 12:51:00,
2015-09-01 08:56:00,79.2,67.7,29.82,NNW,338,0.0,1.0,68,0.00,,---,0.00,VWS V15.00,2015-09-01 12:56:00,
2015-09-01 09:01:00,79.6,68.1,29.82,NNW,338,0.0,0.0,68,0.00,,---,0.00,VWS V15.00,2015-09-01 13:01:00,
2015-09-01 09:06:00,80.1,68.6,29.82,NNW,338,0.0,0.0,68,0.00,,---,0.00,VWS V15.00,2015-09-01 13:06:00,
2015-09-01 09:11:00,81.0,69.9,29.82,NNW,338,0.0,0.0,69,0.00,,---,0.00,VWS V15.00,2015-09-01 13:11:00,
2015-09-01 09:16:00,81.9,71.6,29.82,NNW,338,0.0,0.0,71,0.00,,---,0.00,VWS V15.00,2015-09-01 13:16:00,
2015-09-01 09:21:00,82.8,72.4,29.82,NNW,338,0.0,0.0,71,0.00,,---,0.00,VWS V15.00,2015-09-01 13:21:00,
2015-09-01 09:26:00,83.4,73.4,29.82,NNW,338,0.0,0.0,72,0.00,,---,0.00,VWS V15.00,2015-09-01 13:26:00,
2015-09-01 09:31:00,84.2,74.2,29.82,NNW,338,0.0,0.0,72,0.00,,---,0.00,VWS V15.00,2015-09-01 13:31:00,
2015-09-01 09:36:00,84.7,74.7,29.82,NNW,338,0.0,0.0,72,0.00,,---,0.00,VWS V15.00,2015-09-01 13:36:00,
2015-09-01 09:41:00,85.2,75.2,29.82,NNW,338,0.0,0.0,72,0.00,,---,0.00,VWS V15.00,2015-09-01 13:41:00,
2015-09-01 09:46:00,85.6,75.5,29.82,NE,49,0.0,2.0,72,0.00,,---,0.00,VWS V15.00,2015-09-01 13:46:00,
2015-09-01 09:51:00,86.1,76.0,29.82,ESE,103,1.0,2.0,72,0.00,,---,0.00,VWS V15.00,2015-09-01 13:51:00,
2015-09-01 09:56:00,86.3,76.6,29.82,NNE,13,0.0,2.0,73,0.00,,---,0.00,VWS V15.00,2015-09-01 13:56:00,
2015-09-01 10:01:00,86.5,76.4,29.82,NNE,13,0.0,1.0,72,0.00,,---,0.00,VWS V15.00,2015-09-01 14:01:00,
2015-09-01 10:06:00,86.9,76.8,29.82,ENE,61,0.0,2.0,72,0.00,,---,0.00,VWS V15.00,2015-09-01 14:06:00,
2015-09-01 10:11:00,87.3,77.2,29.82,ENE,62,0.0,2.0,72,0.00,,---,0.00,VWS V15.00,2015-09-01 14:11:00,
2015-09-01 10:16:00,87.7,77.6,29.82,ENE,62,0.0,2.0,72,0.00,,---,0.00,VWS V15.00,2015-09-01 14:16:00,
2015-09-01 10:21:00,88.1,77.9,29.82,ENE,63,0.0,2.0,72,0.00,,---,0.00,VWS V15.00,2015-09-01 14:21:00,
2015-09-01 10:26:00,87.7,77.1,29.82,South,190,1.0,4.0,71,0.00,,---,0.00,VWS V15.00,2015-09-01 14:26:00,
2015-09-01 10:31:00,87.4,77.3,29.82,SSW,199,0.0,3.0,72,0.00,,---,0.00,VWS V15.00,2015-09-01 14:31:00,
2015-09-01 10:36:00,87.5,77.4,29.82,SSW,199,2.0,5.0,72,0.00,,---,0.00,VWS V15.00,2015-09-01 14:36:00,
2015-09-01 10:41:00,87.5,77.4,29.82,South,183,1.0,5.0,72,0.00,,---,0.00,VWS V15.00,2015-09-01 14:41:00,
2015-09-01 10:46:00,87.7,77.1,29.82,SE,140,0.0,5.0,71,0.00,,---,0.00,VWS V15.00,2015-09-01 14:46:00,
2015-09-01 10:51:00,87.8,77.7,29.82,SSE,149,2.0,6.0,72,0.00,,---,0.00,VWS V15.00,2015-09-01 14:51:00,
2015-09-01 10:56:00,88.3,77.7,29.82,SSE,148,0.0,6.0,71,0.00,,---,0.00,VWS V15.00,2015-09-01 14:56:00,
2015-09-01 11:01:00,88.4,77.8,29.82,SSW,213,4.0,4.0,71,0.00,,---,0.00,VWS V15.00,2015-09-01 15:01:00,
2015-09-01 11:06:00,88.2,77.6,29.82,SE,134,4.0,5.0,71,0.00,,---,0.00,VWS V15.00,2015-09-01 15:06:00,
2015-09-01 11:11:00,88.4,78.2,29.82,SW,219,3.0,5.0,72,0.00,,---,0.00,VWS V15.00,2015-09-01 15:11:00,